START_TIME,STEP,MOV.,P11,t_acc.,P23,t_acc.,P27,t_acc.,A4,t_acc.
1979-07-26 00:00:22.470 ,0,0,1.,4.8,0.,4.8,0.,4.8,0.,4.8
1979-07-26 00:00:27.270 ,0,0,0.,4.8,0.,4.8,0.,4.8,0.,4.8
1979-07-26 00:00:32.070 ,0,0,3.,4.8,0.,4.8,1.,4.8,0.,4.8
1979-07-26 00:00:36.870 ,0,0,0.,4.8,0.,4.8,0.,4.8,0.,4.8
1979-07-26 00:00:41.670 ,0,0,4.,4.8,0.,4.8,0.,4.8,0.,4.8
1979-07-26 00:01:34.470 ,0,0,0.,4.8,0.,4.8,0.,4.8,0.,4.8
1979-07-26 00:01:39.270 ,0,0,2.,4.8,0.,4.8,0.,4.8,0.,4.8
1979-07-26 00:01:44.070 ,0,0,0.,4.8,0.,4.8,0.,4.8,0.,4.8
1979-07-26 00:01:48.870 ,0,0,1.,4.8,0.,4.8,0.,4.8,0.,4.8
1979-07-26 00:01:53.670 ,0,0,0.,4.8,0.,4.8,1.,4.8,0.,4.8
1979-07-26 00:01:58.470 ,0,0,1.,4.8,0.,4.8,0.,4.8,0.,4.8
1979-07-26 00:02:03.270 ,0,0,2.,4.8,0.,4.8,0.,4.8,0.,4.8
1979-07-26 00:02:08.070 ,0,0,2.,4.8,0.,4.8,0.,4.8,0.,4.8
1979-07-26 00:02:12.870 ,0,0,2.,4.8,0.,4.8,0.,4.8,0.,4.8
1979-07-26 00:02:17.670 ,0,0,0.,4.8,0.,4.8,0.,4.8,0.,4.8
1979-07-26 00:02:22.470 ,3,0,0.,4.8,0.,4.8,0.,4.8,0.,4.8
1979-07-26 00:02:27.270 ,3,0,4.,4.8,0.,4.8,0.,4.8,0.,4.8
1979-07-26 00:02:32.070 ,3,0,0.,4.8,0.,4.8,0.,4.8,0.,4.8
1979-07-26 00:02:36.870 ,3,0,1.,4.8,0.,4.8,0.,4.8,0.,4.8
1979-07-26 00:02:41.670 ,3,0,0.,4.8,0.,4.8,0.,4.8,0.,4.8
1979-07-26 00:02:46.470 ,3,0,0.,4.8,0.,4.8,0.,4.8,0.,4.8
1979-07-26 00:02:51.270 ,3,0,2.,4.8,0.,4.8,0.,4.8,0.,4.8
1979-07-26 00:02:56.070 ,3,0,1.,4.8,0.,4.8,0.,4.8,0.,4.8
1979-07-26 00:03:00.870 ,3,0,1.,4.8,0.,4.8,0.,4.8,0.,4.8
1979-07-26 00:03:05.670 ,3,0,1.,4.8,0.,4.8,0.,4.8,0.,4.8
1979-07-26 00:03:10.470 ,4,0,1.,4.8,0.,4.8,0.,4.8,0.,4.8
1979-07-26 00:03:15.270 ,4,0,1.,4.8,1.,4.8,0.,4.8,0.,4.8
1979-07-26 00:03:20.070 ,4,0,0.,4.8,0.,4.8,0.,4.8,0.,4.8
1979-07-26 00:03:24.870 ,4,0,0.,4.8,0.,4.8,0.,4.8,0.,4.8
1979-07-26 00:03:29.670 ,4,0,2.,4.8,0.,4.8,0.,4.8,0.,4.8
1979-07-26 00:03:34.470 ,4,0,0.,4.8,0.,4.8,0.,4.8,0.,4.8
1979-07-26 00:03:39.270 ,4,0,1.,4.8,0.,4.8,0.,4.8,0.,4.8
1979-07-26 00:03:44.070 ,4,0,0.,4.8,0.,4.8,0.,4.8,0.,4.8
1979-07-26 00:03:48.870 ,4,0,1.,4.8,0.,4.8,0.,4.8,0.,4.8
1979-07-26 00:03:53.670 ,4,0,0.,4.8,0.,4.8,0.,4.8,1.,4.8
1979-07-26 00:03:58.470 ,5,0,2.,4.8,0.,4.8,0.,4.8,0.,4.8
1979-07-26 00:04:03.270 ,5,0,0.,4.8,0.,4.8,0.,4.8,0.,4.8
1979-07-26 00:04:08.070 ,5,0,1.,4.8,0.,4.8,0.,4.8,0.,4.8
1979-07-26 00:04:12.870 ,5,0,3.,4.8,0.,4.8,0.,4.8,0.,4.8
1979-07-26 00:04:17.670 ,5,0,0.,4.8,0.,4.8,1.,4.8,0.,4.8
1979-07-26 00:04:22.470 ,5,0,0.,4.8,0.,4.8,2.,4.8,0.,4.8
1979-07-26 00:04:27.270 ,5,0,1.,4.8,0.,4.8,0.,4.8,0.,4.8
1979-07-26 00:04:32.070 ,5,0,1.,4.8,0.,4.8,0.,4.8,0.,4.8
1979-07-26 00:04:36.870 ,5,0,1.,4.8,0.,4.8,1.,4.8,0.,4.8
1979-07-26 00:04:41.670 ,5,0,1.,4.8,0.,4.8,0.,4.8,0.,4.8
1979-07-26 00:04:46.470 ,6,0,0.,4.8,0.,4.8,0.,4.8,0.,4.8
1979-07-26 00:04:51.270 ,6,0,0.,4.8,0.,4.8,0.,4.8,0.,4.8
1979-07-26 00:04:56.070 ,6,0,0.,4.8,1.,4.8,0.,4.8,0.,4.8
1979-07-26 00:05:00.870 ,6,0,1.,4.8,0.,4.8,0.,4.8,0.,4.8
1979-07-26 00:05:05.670 ,6,0,2.,4.8,0.,4.8,0.,4.8,0.,4.8
1979-07-26 00:05:10.470 ,6,0,0.,4.8,0.,4.8,1.,4.8,0.,4.8
1979-07-26 00:05:15.270 ,6,0,0.,4.8,0.,4.8,0.,4.8,0.,4.8
1979-07-26 00:05:20.070 ,6,0,0.,4.8,0.,4.8,0.,4.8,0.,4.8
1979-07-26 00:05:24.870 ,6,0,1.,4.8,0.,4.8,0.,4.8,0.,4.8
1979-07-26 00:05:29.670 ,6,0,2.,4.8,0.,4.8,0.,4.8,0.,4.8
1979-07-26 00:05:34.470 ,7,0,0.,4.8,0.,4.8,0.,4.8,0.,4.8
1979-07-26 00:05:39.270 ,7,0,1.,4.8,0.,4.8,0.,4.8,0.,4.8
1979-07-26 00:05:44.070 ,7,0,0.,4.8,0.,4.8,0.,4.8,0.,4.8
1979-07-26 00:05:48.870 ,7,0,2.,4.8,0.,4.8,0.,4.8,0.,4.8
1979-07-26 00:05:53.670 ,7,0,1.,4.8,0.,4.8,0.,4.8,0.,4.8
1979-07-26 00:05:58.470 ,7,0,1.,4.8,0.,4.8,0.,4.8,0.,4.8
1979-07-26 00:06:03.270 ,7,0,0.,4.8,0.,4.8,0.,4.8,0.,4.8
1979-07-26 00:06:08.070 ,7,0,1.,4.8,0.,4.8,0.,4.8,0.,4.8
1979-07-26 00:06:12.870 ,7,0,0.,4.8,1.,4.8,0.,4.8,0.,4.8
1979-07-26 00:06:17.670 ,7,0,3.,4.8,0.,4.8,1.,4.8,0.,4.8
1979-07-26 00:06:22.470 ,7,0,0.,4.8,0.,4.8,0.,4.8,0.,4.8
1979-07-26 00:06:27.270 ,7,0,0.,4.8,0.,4.8,1.,4.8,0.,4.8
1979-07-26 00:06:32.070 ,7,0,1.,4.8,0.,4.8,0.,4.8,0.,4.8
1979-07-26 00:06:36.870 ,7,0,2.,4.8,0.,4.8,0.,4.8,0.,4.8
1979-07-26 00:06:41.670 ,7,0,0.,4.8,0.,4.8,0.,4.8,0.,4.8
1979-07-26 00:06:46.470 ,7,0,1.,4.8,0.,4.8,0.,4.8,0.,4.8
1979-07-26 00:06:51.270 ,7,0,0.,4.8,0.,4.8,0.,4.8,0.,4.8
1979-07-26 00:06:56.070 ,7,0,2.,4.8,0.,4.8,0.,4.8,0.,4.8
1979-07-26 00:07:00.870 ,7,0,1.,4.8,0.,4.8,0.,4.8,0.,4.8
1979-07-26 00:07:05.670 ,7,0,0.,4.8,0.,4.8,0.,4.8,0.,4.8
1979-07-26 00:07:10.470 ,6,0,1.,4.8,0.,4.8,0.,4.8,0.,4.8
1979-07-26 00:07:15.270 ,6,0,2.,4.8,0.,4.8,0.,4.8,0.,4.8
1979-07-26 00:07:20.070 ,6,0,1.,4.8,0.,4.8,0.,4.8,0.,4.8
1979-07-26 00:07:24.870 ,6,0,0.,4.8,0.,4.8,0.,4.8,0.,4.8
1979-07-26 00:07:29.670 ,6,0,1.,4.8,0.,4.8,0.,4.8,0.,4.8
1979-07-26 00:07:34.470 ,6,0,0.,4.8,0.,4.8,0.,4.8,0.,4.8
1979-07-26 00:07:39.270 ,6,0,2.,4.8,0.,4.8,0.,4.8,0.,4.8
1979-07-26 00:07:44.070 ,6,0,2.,4.8,0.,4.8,0.,4.8,0.,4.8
1979-07-26 00:07:48.870 ,6,0,0.,4.8,0.,4.8,0.,4.8,0.,4.8
1979-07-26 00:07:53.670 ,6,0,1.,4.8,0.,4.8,0.,4.8,0.,4.8
1979-07-26 00:07:58.470 ,5,0,0.,4.8,0.,4.8,0.,4.8,0.,4.8
1979-07-26 00:08:03.270 ,5,0,0.,4.8,0.,4.8,0.,4.8,0.,4.8
1979-07-26 00:08:08.070 ,5,0,1.,4.8,0.,4.8,0.,4.8,0.,4.8
1979-07-26 00:08:12.870 ,5,0,0.,4.8,0.,4.8,1.,4.8,0.,4.8
1979-07-26 00:08:17.670 ,5,0,0.,4.8,0.,4.8,0.,4.8,0.,4.8
1979-07-26 00:08:22.470 ,5,0,2.,4.8,0.,4.8,0.,4.8,0.,4.8
1979-07-26 00:08:27.270 ,5,0,1.,4.8,0.,4.8,0.,4.8,0.,4.8
1979-07-26 00:08:32.070 ,5,0,3.,4.8,0.,4.8,0.,4.8,0.,4.8
1979-07-26 00:08:36.870 ,5,0,2.,4.8,0.,4.8,0.,4.8,0.,4.8
1979-07-26 00:08:41.670 ,5,0,0.,4.8,0.,4.8,0.,4.8,0.,4.8
1979-07-26 00:08:46.470 ,4,0,2.,4.8,0.,4.8,0.,4.8,0.,4.8
1979-07-26 00:08:51.270 ,4,0,2.,4.8,0.,4.8,0.,4.8,0.,4.8
1979-07-26 00:08:56.070 ,4,0,2.,4.8,0.,4.8,0.,4.8,0.,4.8
1979-07-26 00:09:00.870 ,4,0,1.,4.8,0.,4.8,0.,4.8,0.,4.8
1979-07-26 00:09:05.670 ,4,0,0.,4.8,0.,4.8,1.,4.8,0.,4.8
1979-07-26 00:09:10.470 ,4,0,1.,4.8,0.,4.8,0.,4.8,0.,4.8
1979-07-26 00:09:15.270 ,4,0,2.,4.8,0.,4.8,0.,4.8,0.,4.8
1979-07-26 00:09:20.070 ,4,0,2.,4.8,0.,4.8,0.,4.8,0.,4.8
1979-07-26 00:09:24.870 ,4,0,0.,4.8,0.,4.8,0.,4.8,1.,4.8
1979-07-26 00:09:29.670 ,4,0,2.,4.8,0.,4.8,0.,4.8,0.,4.8
1979-07-26 00:09:34.470 ,3,0,0.,4.8,0.,4.8,0.,4.8,0.,4.8
1979-07-26 00:09:39.270 ,3,0,2.,4.8,0.,4.8,0.,4.8,0.,4.8
1979-07-26 00:09:44.070 ,3,0,3.,4.8,0.,4.8,0.,4.8,0.,4.8
1979-07-26 00:09:48.870 ,3,0,0.,4.8,0.,4.8,0.,4.8,0.,4.8
1979-07-26 00:09:53.670 ,3,0,2.,4.8,0.,4.8,0.,4.8,0.,4.8
1979-07-26 00:09:58.470 ,3,0,0.,4.8,1.,4.8,0.,4.8,0.,4.8
1979-07-26 00:10:03.270 ,3,0,1.,4.8,0.,4.8,0.,4.8,0.,4.8
1979-07-26 00:10:08.070 ,3,0,1.,4.8,1.,4.8,1.,4.8,0.,4.8
1979-07-26 00:10:12.870 ,3,0,0.,4.8,0.,4.8,0.,4.8,0.,4.8
1979-07-26 00:10:17.670 ,3,0,0.,4.8,0.,4.8,0.,4.8,0.,4.8
1979-07-26 00:10:22.470 ,2,0,0.,4.8,0.,4.8,0.,4.8,0.,4.8
1979-07-26 00:10:27.270 ,2,0,2.,4.8,0.,4.8,0.,4.8,0.,4.8
1979-07-26 00:10:32.070 ,2,0,0.,4.8,0.,4.8,0.,4.8,0.,4.8
1979-07-26 00:10:36.870 ,2,0,0.,4.8,0.,4.8,0.,4.8,0.,4.8
1979-07-26 00:10:41.670 ,2,0,1.,4.8,0.,4.8,0.,4.8,0.,4.8
1979-07-26 00:10:46.470 ,2,0,4.,4.8,0.,4.8,0.,4.8,0.,4.8
1979-07-26 00:10:51.270 ,2,0,0.,4.8,0.,4.8,0.,4.8,0.,4.8
1979-07-26 00:10:56.070 ,2,0,1.,4.8,0.,4.8,0.,4.8,0.,4.8
1979-07-26 00:11:00.870 ,2,0,0.,4.8,0.,4.8,0.,4.8,0.,4.8
1979-07-26 00:11:05.670 ,2,0,1.,4.8,0.,4.8,0.,4.8,0.,4.8
1979-07-26 00:11:10.470 ,1,0,2.,4.8,0.,4.8,0.,4.8,0.,4.8
1979-07-26 00:11:15.270 ,1,0,2.,4.8,0.,4.8,0.,4.8,0.,4.8
1979-07-26 00:11:20.070 ,1,0,3.,4.8,0.,4.8,0.,4.8,0.,4.8
1979-07-26 00:11:24.870 ,1,0,0.,4.8,0.,4.8,0.,4.8,0.,4.8
1979-07-26 00:11:29.670 ,1,0,0.,4.8,0.,4.8,0.,4.8,0.,4.8
1979-07-26 00:11:34.470 ,1,0,1.,4.8,0.,4.8,0.,4.8,0.,4.8
1979-07-26 00:11:39.270 ,1,0,1.,4.8,0.,4.8,0.,4.8,0.,4.8
1979-07-26 00:11:44.070 ,1,0,1.,4.8,0.,4.8,0.,4.8,0.,4.8
1979-07-26 00:11:48.870 ,1,0,0.,4.8,0.,4.8,0.,4.8,0.,4.8
1979-07-26 00:11:53.670 ,1,0,0.,4.8,0.,4.8,0.,4.8,0.,4.8
1979-07-26 00:11:58.470 ,0,0,0.,4.8,0.,4.8,0.,4.8,0.,4.8
1979-07-26 00:12:03.270 ,0,0,0.,4.8,0.,4.8,0.,4.8,0.,4.8
1979-07-26 00:12:08.070 ,0,0,0.,4.8,0.,4.8,1.,4.8,0.,4.8
1979-07-26 00:12:12.870 ,0,0,4.,4.8,0.,4.8,0.,4.8,0.,4.8
1979-07-26 00:12:17.670 ,0,0,2.,4.8,0.,4.8,0.,4.8,0.,4.8
1979-07-26 00:12:22.470 ,0,0,0.,4.8,0.,4.8,0.,4.8,0.,4.8
1979-07-26 00:12:27.270 ,0,0,1.,4.8,0.,4.8,0.,4.8,0.,4.8
1979-07-26 00:12:32.070 ,0,0,2.,4.8,0.,4.8,0.,4.8,0.,4.8
1979-07-26 00:12:36.870 ,0,0,0.,4.8,0.,4.8,0.,4.8,0.,4.8
1979-07-26 00:12:41.670 ,0,0,3.,4.8,0.,4.8,0.,4.8,0.,4.8
1979-07-26 00:12:46.470 ,0,0,0.,4.8,0.,4.8,0.,4.8,0.,4.8
1979-07-26 00:12:51.270 ,0,0,0.,4.8,0.,4.8,0.,4.8,0.,4.8
1979-07-26 00:12:56.070 ,0,0,1.,4.8,0.,4.8,0.,4.8,0.,4.8
1979-07-26 00:13:00.870 ,0,0,0.,4.8,0.,4.8,0.,4.8,0.,4.8
1979-07-26 00:13:05.670 ,0,0,4.,4.8,0.,4.8,0.,4.8,0.,4.8
1979-07-26 00:13:10.470 ,0,0,2.,4.8,0.,4.8,0.,4.8,0.,4.8
1979-07-26 00:13:15.270 ,0,0,1.,4.8,0.,4.8,0.,4.8,0.,4.8
1979-07-26 00:13:20.070 ,0,0,0.,4.8,0.,4.8,1.,4.8,0.,4.8
1979-07-26 00:13:24.870 ,0,0,1.,4.8,0.,4.8,0.,4.8,0.,4.8
1979-07-26 00:13:29.670 ,0,0,2.,4.8,0.,4.8,0.,4.8,0.,4.8
1979-07-26 00:13:34.470 ,1,0,0.,4.8,0.,4.8,0.,4.8,0.,4.8
1979-07-26 00:13:39.270 ,1,0,0.,4.8,0.,4.8,0.,4.8,1.,4.8
1979-07-26 00:13:44.070 ,1,0,2.,4.8,0.,4.8,1.,4.8,0.,4.8
1979-07-26 00:13:48.870 ,1,0,1.,4.8,0.,4.8,0.,4.8,0.,4.8
1979-07-26 00:13:53.670 ,1,0,1.,4.8,0.,4.8,0.,4.8,0.,4.8
1979-07-26 00:13:58.470 ,1,0,1.,4.8,0.,4.8,0.,4.8,0.,4.8
1979-07-26 00:14:03.270 ,1,0,0.,4.8,0.,4.8,0.,4.8,0.,4.8
1979-07-26 00:14:08.070 ,1,0,2.,4.8,0.,4.8,0.,4.8,0.,4.8
1979-07-26 00:14:12.870 ,1,0,2.,4.8,0.,4.8,0.,4.8,0.,4.8
1979-07-26 00:14:17.670 ,1,0,1.,4.8,0.,4.8,0.,4.8,0.,4.8
1979-07-26 00:14:22.470 ,2,0,1.,4.8,0.,4.8,0.,4.8,0.,4.8
1979-07-26 00:14:27.270 ,2,0,0.,4.8,0.,4.8,0.,4.8,0.,4.8
1979-07-26 00:14:32.070 ,2,0,1.,4.8,0.,4.8,0.,4.8,0.,4.8
1979-07-26 00:14:36.870 ,2,0,0.,4.8,0.,4.8,1.,4.8,0.,4.8
1979-07-26 00:14:41.670 ,2,0,0.,4.8,0.,4.8,0.,4.8,0.,4.8
1979-07-26 00:14:46.470 ,2,0,4.,4.8,0.,4.8,0.,4.8,0.,4.8
1979-07-26 00:14:51.270 ,2,0,1.,4.8,0.,4.8,0.,4.8,0.,4.8
1979-07-26 00:14:56.070 ,2,0,0.,4.8,0.,4.8,0.,4.8,0.,4.8
1979-07-26 00:15:00.870 ,2,0,2.,4.8,0.,4.8,0.,4.8,0.,4.8
1979-07-26 00:15:05.670 ,2,0,0.,4.8,0.,4.8,0.,4.8,0.,4.8
1979-07-26 00:15:10.470 ,3,0,0.,4.8,0.,4.8,0.,4.8,0.,4.8
1979-07-26 00:15:15.270 ,3,0,0.,4.8,0.,4.8,0.,4.8,0.,4.8
1979-07-26 00:15:20.070 ,3,0,0.,4.8,0.,4.8,0.,4.8,0.,4.8
1979-07-26 00:15:24.870 ,3,0,1.,4.8,0.,4.8,0.,4.8,0.,4.8
1979-07-26 00:15:29.670 ,3,0,1.,4.8,0.,4.8,0.,4.8,0.,4.8
1979-07-26 00:15:34.470 ,3,0,2.,4.8,0.,4.8,0.,4.8,0.,4.8
1979-07-26 00:15:39.270 ,3,0,3.,4.8,0.,4.8,1.,4.8,0.,4.8
1979-07-26 00:15:44.070 ,3,0,1.,4.8,0.,4.8,0.,4.8,0.,4.8
1979-07-26 00:15:48.870 ,3,0,0.,4.8,0.,4.8,0.,4.8,0.,4.8
1979-07-26 00:15:53.670 ,3,0,0.,4.8,0.,4.8,0.,4.8,0.,4.8
1979-07-26 00:15:58.470 ,4,0,1.,4.8,0.,4.8,0.,4.8,0.,4.8
1979-07-26 00:16:03.270 ,4,0,0.,4.8,0.,4.8,0.,4.8,0.,4.8
1979-07-26 00:16:08.070 ,4,0,0.,4.8,0.,4.8,0.,4.8,0.,4.8
1979-07-26 00:16:12.870 ,4,0,0.,4.8,0.,4.8,2.,4.8,0.,4.8
1979-07-26 00:16:17.670 ,4,0,1.,4.8,0.,4.8,0.,4.8,0.,4.8
1979-07-26 00:16:22.470 ,4,0,1.,4.8,0.,4.8,0.,4.8,0.,4.8
1979-07-26 00:16:27.270 ,4,0,0.,4.8,0.,4.8,0.,4.8,0.,4.8
1979-07-26 00:16:32.070 ,4,0,0.,4.8,0.,4.8,0.,4.8,0.,4.8
1979-07-26 00:16:36.870 ,4,0,2.,4.8,0.,4.8,0.,4.8,0.,4.8
1979-07-26 00:16:41.670 ,4,0,0.,4.8,0.,4.8,0.,4.8,0.,4.8
1979-07-26 00:16:46.470 ,5,0,1.,4.8,0.,4.8,0.,4.8,0.,4.8
1979-07-26 00:16:51.270 ,5,0,1.,4.8,0.,4.8,0.,4.8,0.,4.8
1979-07-26 00:16:56.070 ,5,0,3.,4.8,0.,4.8,0.,4.8,0.,4.8
1979-07-26 00:17:00.870 ,5,0,2.,4.8,0.,4.8,0.,4.8,0.,4.8
1979-07-26 00:17:05.670 ,5,0,2.,4.8,0.,4.8,0.,4.8,0.,4.8
1979-07-26 00:17:10.470 ,5,0,1.,4.8,0.,4.8,0.,4.8,0.,4.8
1979-07-26 00:17:15.270 ,5,0,1.,4.8,0.,4.8,0.,4.8,0.,4.8
1979-07-26 00:17:20.070 ,5,0,2.,4.8,0.,4.8,0.,4.8,0.,4.8
1979-07-26 00:17:24.870 ,5,0,1.,4.8,0.,4.8,0.,4.8,0.,4.8
1979-07-26 00:17:29.670 ,5,0,0.,4.8,0.,4.8,0.,4.8,0.,4.8
1979-07-26 00:17:34.470 ,6,0,0.,4.8,0.,4.8,1.,4.8,0.,4.8
1979-07-26 00:17:39.270 ,6,0,0.,4.8,0.,4.8,0.,4.8,0.,4.8
1979-07-26 00:17:44.070 ,6,0,0.,4.8,0.,4.8,0.,4.8,0.,4.8
1979-07-26 00:17:48.870 ,6,0,1.,4.8,0.,4.8,0.,4.8,0.,4.8
1979-07-26 00:17:53.670 ,6,0,3.,4.8,0.,4.8,0.,4.8,0.,4.8
1979-07-26 00:17:58.470 ,6,0,5.,4.8,0.,4.8,0.,4.8,0.,4.8
1979-07-26 00:18:03.270 ,6,0,0.,4.8,0.,4.8,0.,4.8,0.,4.8
1979-07-26 00:18:08.070 ,6,0,1.,4.8,0.,4.8,0.,4.8,0.,4.8
1979-07-26 00:18:12.870 ,6,0,0.,4.8,0.,4.8,1.,4.8,0.,4.8
1979-07-26 00:18:17.670 ,6,0,1.,4.8,0.,4.8,0.,4.8,0.,4.8
1979-07-26 00:18:22.470 ,7,0,3.,4.8,0.,4.8,0.,4.8,0.,4.8
1979-07-26 00:18:27.270 ,7,0,0.,4.8,0.,4.8,0.,4.8,0.,4.8
1979-07-26 00:18:32.070 ,7,0,1.,4.8,0.,4.8,0.,4.8,0.,4.8
1979-07-26 00:18:36.870 ,7,0,1.,4.8,0.,4.8,0.,4.8,0.,4.8
1979-07-26 00:18:41.670 ,7,0,0.,4.8,0.,4.8,0.,4.8,0.,4.8
1979-07-26 00:18:46.470 ,7,0,0.,4.8,0.,4.8,0.,4.8,0.,4.8
1979-07-26 00:18:51.270 ,7,0,0.,4.8,0.,4.8,0.,4.8,0.,4.8
1979-07-26 00:18:56.070 ,7,0,1.,4.8,1.,4.8,0.,4.8,0.,4.8
1979-07-26 00:19:00.870 ,7,0,2.,4.8,0.,4.8,0.,4.8,0.,4.8
1979-07-26 00:19:05.670 ,7,0,0.,4.8,0.,4.8,0.,4.8,0.,4.8
1979-07-26 00:19:10.470 ,3,1,1.,4.8,0.,4.8,2.,4.8,0.,4.8
1979-07-26 00:19:15.270 ,3,1,0.,4.8,0.,4.8,1.,4.8,0.,4.8
1979-07-26 00:19:20.070 ,3,1,2.,4.8,0.,4.8,0.,4.8,0.,4.8
1979-07-26 00:19:24.870 ,3,1,1.,4.8,0.,4.8,0.,4.8,0.,4.8
1979-07-26 00:19:29.670 ,3,1,0.,4.8,0.,4.8,0.,4.8,0.,4.8
1979-07-26 00:19:34.470 ,0,1,1.,4.8,0.,4.8,0.,4.8,0.,4.8
1979-07-26 00:19:39.270 ,0,1,0.,4.8,0.,4.8,0.,4.8,0.,4.8
1979-07-26 00:19:44.070 ,0,1,0.,4.8,0.,4.8,0.,4.8,0.,4.8
1979-07-26 00:19:48.870 ,0,1,0.,4.8,0.,4.8,0.,4.8,0.,4.8
1979-07-26 00:19:53.670 ,0,1,2.,4.8,0.,4.8,0.,4.8,0.,4.8
1979-07-26 00:19:58.470 ,4,1,3.,4.8,0.,4.8,1.,4.8,0.,4.8
1979-07-26 00:20:03.270 ,4,1,1.,4.8,0.,4.8,0.,4.8,0.,4.8
1979-07-26 00:20:08.070 ,4,1,0.,4.8,0.,4.8,0.,4.8,0.,4.8
1979-07-26 00:20:12.870 ,4,1,0.,4.8,0.,4.8,0.,4.8,0.,4.8
1979-07-26 00:20:17.670 ,4,1,1.,4.8,0.,4.8,0.,4.8,0.,4.8
1979-07-26 00:20:22.470 ,7,1,0.,4.8,0.,4.8,0.,4.8,0.,4.8
1979-07-26 00:20:27.270 ,7,1,1.,4.8,0.,4.8,0.,4.8,0.,4.8
1979-07-26 00:20:32.070 ,7,1,1.,4.8,0.,4.8,0.,4.8,0.,4.8
1979-07-26 00:20:36.870 ,7,1,1.,4.8,0.,4.8,1.,4.8,0.,4.8
1979-07-26 00:20:41.670 ,7,1,0.,4.8,0.,4.8,0.,4.8,0.,4.8
1979-07-26 00:20:46.470 ,3,1,0.,4.8,0.,4.8,0.,4.8,0.,4.8
1979-07-26 00:20:51.270 ,3,1,1.,4.8,0.,4.8,0.,4.8,0.,4.8
1979-07-26 00:20:56.070 ,3,1,1.,4.8,0.,4.8,0.,4.8,0.,4.8
1979-07-26 00:21:00.870 ,3,1,0.,4.8,0.,4.8,0.,4.8,0.,4.8
1979-07-26 00:21:05.670 ,3,1,1.,4.8,0.,4.8,0.,4.8,0.,4.8
1979-07-26 00:21:10.470 ,0,1,2.,4.8,0.,4.8,0.,4.8,0.,4.8
1979-07-26 00:21:15.270 ,0,1,1.,4.8,0.,4.8,0.,4.8,0.,4.8
1979-07-26 00:21:20.070 ,0,1,0.,4.8,0.,4.8,0.,4.8,0.,4.8
1979-07-26 00:21:24.870 ,0,1,1.,4.8,0.,4.8,1.,4.8,0.,4.8
1979-07-26 00:21:29.670 ,0,1,0.,4.8,0.,4.8,1.,4.8,0.,4.8
1979-07-26 00:21:34.470 ,4,1,0.,4.8,0.,4.8,0.,4.8,0.,4.8
1979-07-26 00:21:39.270 ,4,1,2.,4.8,0.,4.8,1.,4.8,0.,4.8
1979-07-26 00:21:44.070 ,4,1,0.,4.8,0.,4.8,0.,4.8,0.,4.8
1979-07-26 00:21:48.870 ,4,1,0.,4.8,0.,4.8,0.,4.8,0.,4.8
1979-07-26 00:21:53.670 ,4,1,1.,4.8,0.,4.8,0.,4.8,0.,4.8
1979-07-26 00:21:58.470 ,7,1,0.,4.8,0.,4.8,0.,4.8,0.,4.8
1979-07-26 00:22:03.270 ,7,1,0.,4.8,0.,4.8,0.,4.8,0.,4.8
1979-07-26 00:22:08.070 ,7,1,0.,4.8,0.,4.8,0.,4.8,0.,4.8
1979-07-26 00:22:12.870 ,7,1,0.,4.8,0.,4.8,0.,4.8,0.,4.8
1979-07-26 00:22:17.670 ,7,1,1.,4.8,0.,4.8,1.,4.8,0.,4.8
1979-07-26 00:22:22.470 ,3,1,0.,4.8,0.,4.8,0.,4.8,0.,4.8
1979-07-26 00:22:27.270 ,3,1,0.,4.8,0.,4.8,0.,4.8,0.,4.8
1979-07-26 00:22:32.070 ,3,1,0.,4.8,0.,4.8,0.,4.8,0.,4.8
1979-07-26 00:22:36.870 ,3,1,2.,4.8,0.,4.8,0.,4.8,0.,4.8
1979-07-26 00:22:41.670 ,3,1,1.,4.8,0.,4.8,0.,4.8,0.,4.8
1979-07-26 00:22:46.470 ,0,1,0.,4.8,0.,4.8,0.,4.8,0.,4.8
1979-07-26 00:22:51.270 ,0,1,0.,4.8,0.,4.8,0.,4.8,0.,4.8
1979-07-26 00:22:56.070 ,0,1,4.,4.8,0.,4.8,0.,4.8,0.,4.8
1979-07-26 00:23:00.870 ,0,1,3.,4.8,0.,4.8,0.,4.8,0.,4.8
1979-07-26 00:23:05.670 ,0,1,0.,4.8,0.,4.8,0.,4.8,0.,4.8
1979-07-26 00:23:10.470 ,4,1,4.,4.8,0.,4.8,0.,4.8,0.,4.8
1979-07-26 00:23:15.270 ,4,1,4.,4.8,0.,4.8,0.,4.8,0.,4.8
1979-07-26 00:23:20.070 ,4,1,2.,4.8,0.,4.8,0.,4.8,0.,4.8
1979-07-26 00:23:24.870 ,4,1,1.,4.8,0.,4.8,0.,4.8,0.,4.8
1979-07-26 00:23:29.670 ,4,1,2.,4.8,0.,4.8,0.,4.8,0.,4.8
1979-07-26 00:23:34.470 ,7,1,0.,4.8,0.,4.8,0.,4.8,0.,4.8
1979-07-26 00:23:39.270 ,7,1,2.,4.8,0.,4.8,0.,4.8,0.,4.8
1979-07-26 00:23:44.070 ,7,1,0.,4.8,0.,4.8,0.,4.8,0.,4.8
1979-07-26 00:23:48.870 ,7,1,0.,4.8,0.,4.8,0.,4.8,0.,4.8
1979-07-26 00:23:53.670 ,7,1,0.,4.8,0.,4.8,0.,4.8,0.,4.8
1979-07-26 00:23:58.470 ,3,1,3.,4.8,0.,4.8,1.,4.8,0.,4.8
1979-07-26 00:24:03.270 ,3,1,1.,4.8,0.,4.8,0.,4.8,0.,4.8
1979-07-26 00:24:08.070 ,3,1,0.,4.8,0.,4.8,0.,4.8,0.,4.8
1979-07-26 00:24:12.870 ,3,1,0.,4.8,0.,4.8,0.,4.8,0.,4.8
1979-07-26 00:24:17.670 ,3,1,0.,4.8,0.,4.8,0.,4.8,0.,4.8
1979-07-26 00:24:22.470 ,0,1,2.,4.8,1.,4.8,0.,4.8,0.,4.8
1979-07-26 00:24:27.270 ,0,1,2.,4.8,0.,4.8,0.,4.8,0.,4.8
1979-07-26 00:24:32.070 ,0,1,0.,4.8,0.,4.8,0.,4.8,0.,4.8
1979-07-26 00:24:36.870 ,0,1,5.,4.8,0.,4.8,0.,4.8,0.,4.8
1979-07-26 00:24:41.670 ,0,1,3.,4.8,0.,4.8,0.,4.8,0.,4.8
1979-07-26 00:24:46.470 ,4,1,0.,4.8,0.,4.8,0.,4.8,0.,4.8
1979-07-26 00:24:51.270 ,4,1,3.,4.8,0.,4.8,0.,4.8,0.,4.8
1979-07-26 00:24:56.070 ,4,1,0.,4.8,0.,4.8,0.,4.8,0.,4.8
1979-07-26 00:25:00.870 ,4,1,1.,4.8,0.,4.8,0.,4.8,0.,4.8
1979-07-26 00:25:05.670 ,4,1,1.,4.8,0.,4.8,0.,4.8,0.,4.8
1979-07-26 00:25:10.470 ,7,1,1.,4.8,0.,4.8,0.,4.8,0.,4.8
1979-07-26 00:25:15.270 ,7,1,2.,4.8,0.,4.8,1.,4.8,0.,4.8
1979-07-26 00:25:20.070 ,7,1,1.,4.8,0.,4.8,0.,4.8,0.,4.8
1979-07-26 00:25:24.870 ,7,1,2.,4.8,0.,4.8,0.,4.8,0.,4.8
1979-07-26 00:25:29.670 ,7,1,0.,4.8,0.,4.8,0.,4.8,0.,4.8
1979-07-26 00:25:34.470 ,3,1,1.,4.8,0.,4.8,0.,4.8,0.,4.8
1979-07-26 00:25:39.270 ,3,1,0.,4.8,0.,4.8,0.,4.8,0.,4.8
1979-07-26 00:25:44.070 ,3,1,2.,4.8,0.,4.8,0.,4.8,0.,4.8
1979-07-26 00:25:48.870 ,3,1,1.,4.8,0.,4.8,0.,4.8,0.,4.8
1979-07-26 00:25:53.670 ,3,1,0.,4.8,0.,4.8,0.,4.8,0.,4.8
1979-07-26 00:25:58.470 ,0,1,0.,4.8,0.,4.8,0.,4.8,0.,4.8
1979-07-26 00:26:03.270 ,0,1,4.,4.8,0.,4.8,0.,4.8,0.,4.8
1979-07-26 00:26:08.070 ,0,1,1.,4.8,0.,4.8,0.,4.8,0.,4.8
1979-07-26 00:26:12.870 ,0,1,2.,4.8,0.,4.8,0.,4.8,0.,4.8
1979-07-26 00:26:17.670 ,0,1,3.,4.8,0.,4.8,0.,4.8,0.,4.8
1979-07-26 00:26:22.470 ,4,1,2.,4.8,0.,4.8,0.,4.8,0.,4.8
1979-07-26 00:26:27.270 ,4,1,3.,4.8,0.,4.8,0.,4.8,0.,4.8
1979-07-26 00:26:32.070 ,4,1,4.,4.8,0.,4.8,0.,4.8,0.,4.8
1979-07-26 00:26:36.870 ,4,1,0.,4.8,0.,4.8,0.,4.8,0.,4.8
1979-07-26 00:26:41.670 ,4,1,0.,4.8,0.,4.8,0.,4.8,0.,4.8
1979-07-26 00:26:46.470 ,7,1,0.,4.8,0.,4.8,1.,4.8,0.,4.8
1979-07-26 00:26:51.270 ,7,1,1.,4.8,0.,4.8,2.,4.8,0.,4.8
1979-07-26 00:26:56.070 ,7,1,0.,4.8,0.,4.8,0.,4.8,0.,4.8
1979-07-26 00:27:00.870 ,7,1,1.,4.8,0.,4.8,0.,4.8,0.,4.8
1979-07-26 00:27:05.670 ,7,1,0.,4.8,0.,4.8,0.,4.8,0.,4.8
1979-07-26 00:27:10.470 ,3,1,0.,4.8,0.,4.8,0.,4.8,0.,4.8
1979-07-26 00:27:15.270 ,3,1,2.,4.8,0.,4.8,0.,4.8,0.,4.8
1979-07-26 00:27:20.070 ,3,1,0.,4.8,0.,4.8,0.,4.8,0.,4.8
1979-07-26 00:27:24.870 ,3,1,1.,4.8,0.,4.8,0.,4.8,0.,4.8
1979-07-26 00:27:29.670 ,3,1,1.,4.8,0.,4.8,0.,4.8,0.,4.8
1979-07-26 00:27:34.470 ,0,1,0.,4.8,0.,4.8,0.,4.8,0.,4.8
1979-07-26 00:27:39.270 ,0,1,2.,4.8,0.,4.8,0.,4.8,0.,4.8
1979-07-26 00:27:44.070 ,0,1,2.,4.8,0.,4.8,0.,4.8,0.,4.8
1979-07-26 00:27:48.870 ,0,1,2.,4.8,0.,4.8,0.,4.8,0.,4.8
1979-07-26 00:27:53.670 ,0,1,3.,4.8,0.,4.8,0.,4.8,0.,4.8
1979-07-26 00:27:58.470 ,4,1,1.,4.8,0.,4.8,0.,4.8,0.,4.8
1979-07-26 00:28:03.270 ,4,1,1.,4.8,0.,4.8,0.,4.8,0.,4.8
1979-07-26 00:28:08.070 ,4,1,1.,4.8,0.,4.8,0.,4.8,0.,4.8
1979-07-26 00:28:12.870 ,4,1,0.,4.8,0.,4.8,0.,4.8,0.,4.8
1979-07-26 00:28:17.670 ,4,1,2.,4.8,0.,4.8,0.,4.8,0.,4.8
1979-07-26 00:28:22.470 ,7,1,0.,4.8,0.,4.8,1.,4.8,0.,4.8
1979-07-26 00:28:27.270 ,7,1,1.,4.8,0.,4.8,0.,4.8,0.,4.8
1979-07-26 00:28:32.070 ,7,1,1.,4.8,0.,4.8,0.,4.8,0.,4.8
1979-07-26 00:28:36.870 ,7,1,1.,4.8,0.,4.8,0.,4.8,0.,4.8
1979-07-26 00:28:41.670 ,7,1,0.,4.8,0.,4.8,0.,4.8,0.,4.8
1979-07-26 00:28:46.470 ,3,1,2.,4.8,0.,4.8,0.,4.8,0.,4.8
1979-07-26 00:28:51.270 ,3,1,0.,4.8,0.,4.8,0.,4.8,0.,4.8
1979-07-26 00:28:56.070 ,3,1,0.,4.8,1.,4.8,0.,4.8,0.,4.8
1979-07-26 00:29:00.870 ,3,1,2.,4.8,0.,4.8,0.,4.8,0.,4.8
1979-07-26 00:29:05.670 ,3,1,0.,4.8,0.,4.8,0.,4.8,0.,4.8
1979-07-26 00:29:10.470 ,0,1,1.,4.8,0.,4.8,0.,4.8,0.,4.8
1979-07-26 00:29:15.270 ,0,1,1.,4.8,0.,4.8,0.,4.8,0.,4.8
1979-07-26 00:29:20.070 ,0,1,2.,4.8,0.,4.8,0.,4.8,0.,4.8
1979-07-26 00:29:24.870 ,0,1,2.,4.8,0.,4.8,0.,4.8,0.,4.8
1979-07-26 00:29:29.670 ,0,1,4.,4.8,0.,4.8,0.,4.8,0.,4.8
1979-07-26 00:29:34.470 ,0,0,1.,4.8,0.,4.8,0.,4.8,0.,4.8
1979-07-26 00:29:39.270 ,0,0,3.,4.8,0.,4.8,0.,4.8,0.,4.8
1979-07-26 00:29:44.070 ,0,0,3.,4.8,0.,4.8,0.,4.8,0.,4.8
1979-07-26 00:29:48.870 ,0,0,2.,4.8,0.,4.8,0.,4.8,0.,4.8
1979-07-26 00:29:53.670 ,0,0,0.,4.8,0.,4.8,0.,4.8,0.,4.8
1979-07-26 00:29:58.470 ,0,0,2.,4.8,1.,4.8,0.,4.8,0.,4.8
1979-07-26 00:30:03.270 ,0,0,2.,4.8,0.,4.8,0.,4.8,0.,4.8
1979-07-26 00:30:08.070 ,0,0,1.,4.8,0.,4.8,0.,4.8,0.,4.8
1979-07-26 00:30:12.870 ,0,0,0.,4.8,0.,4.8,0.,4.8,0.,4.8
1979-07-26 00:30:17.670 ,0,0,1.,4.8,0.,4.8,0.,4.8,0.,4.8
1979-07-26 00:30:22.470 ,5,0,1.,4.8,1.,4.8,0.,4.8,0.,4.8
1979-07-26 00:30:27.270 ,5,0,3.,4.8,0.,4.8,0.,4.8,0.,4.8
1979-07-26 00:30:32.070 ,5,0,1.,4.8,1.,4.8,0.,4.8,0.,4.8
1979-07-26 00:30:36.870 ,5,0,1.,4.8,0.,4.8,0.,4.8,0.,4.8
1979-07-26 00:30:41.670 ,5,0,1.,4.8,0.,4.8,0.,4.8,0.,4.8
1979-07-26 00:30:46.470 ,5,0,0.,4.8,0.,4.8,0.,4.8,0.,4.8
1979-07-26 00:30:51.270 ,5,0,1.,4.8,0.,4.8,1.,4.8,0.,4.8
1979-07-26 00:30:56.070 ,5,0,1.,4.8,0.,4.8,0.,4.8,0.,4.8
1979-07-26 00:31:00.870 ,5,0,1.,4.8,0.,4.8,0.,4.8,0.,4.8
1979-07-26 00:31:05.670 ,5,0,0.,4.8,0.,4.8,1.,4.8,0.,4.8
1979-07-26 00:31:10.470 ,4,0,0.,4.8,0.,4.8,0.,4.8,0.,4.8
1979-07-26 00:31:15.270 ,4,0,2.,4.8,0.,4.8,0.,4.8,0.,4.8
1979-07-26 00:31:20.070 ,4,0,2.,4.8,0.,4.8,0.,4.8,0.,4.8
1979-07-26 00:31:24.870 ,4,0,0.,4.8,0.,4.8,0.,4.8,0.,4.8
1979-07-26 00:31:29.670 ,4,0,2.,4.8,0.,4.8,0.,4.8,0.,4.8
1979-07-26 00:31:34.470 ,4,0,1.,4.8,0.,4.8,0.,4.8,0.,4.8
1979-07-26 00:31:39.270 ,4,0,1.,4.8,0.,4.8,1.,4.8,0.,4.8
1979-07-26 00:31:44.070 ,4,0,1.,4.8,0.,4.8,0.,4.8,0.,4.8
1979-07-26 00:31:48.870 ,4,0,0.,4.8,0.,4.8,0.,4.8,0.,4.8
1979-07-26 00:31:53.670 ,4,0,2.,4.8,0.,4.8,0.,4.8,0.,4.8
1979-07-26 00:31:58.470 ,3,0,1.,4.8,0.,4.8,0.,4.8,0.,4.8
1979-07-26 00:32:03.270 ,3,0,1.,4.8,0.,4.8,0.,4.8,0.,4.8
1979-07-26 00:32:08.070 ,3,0,0.,4.8,0.,4.8,0.,4.8,0.,4.8
1979-07-26 00:32:12.870 ,3,0,0.,4.8,0.,4.8,1.,4.8,0.,4.8
1979-07-26 00:32:17.670 ,3,0,0.,4.8,0.,4.8,1.,4.8,0.,4.8
1979-07-26 00:32:22.470 ,3,0,1.,4.8,0.,4.8,0.,4.8,0.,4.8
1979-07-26 00:32:27.270 ,3,0,0.,4.8,0.,4.8,0.,4.8,0.,4.8
1979-07-26 00:32:32.070 ,3,0,3.,4.8,0.,4.8,1.,4.8,0.,4.8
1979-07-26 00:32:36.870 ,3,0,3.,4.8,0.,4.8,0.,4.8,0.,4.8
1979-07-26 00:32:41.670 ,3,0,1.,4.8,0.,4.8,1.,4.8,0.,4.8
1979-07-26 00:32:46.470 ,2,0,0.,4.8,0.,4.8,0.,4.8,0.,4.8
1979-07-26 00:32:51.270 ,2,0,1.,4.8,0.,4.8,0.,4.8,0.,4.8
1979-07-26 00:32:56.070 ,2,0,5.,4.8,0.,4.8,0.,4.8,0.,4.8
1979-07-26 00:33:00.870 ,2,0,2.,4.8,1.,4.8,0.,4.8,0.,4.8
1979-07-26 00:33:05.670 ,2,0,1.,4.8,0.,4.8,0.,4.8,0.,4.8
1979-07-26 00:33:10.470 ,2,0,1.,4.8,0.,4.8,0.,4.8,0.,4.8
1979-07-26 00:33:15.270 ,2,0,4.,4.8,0.,4.8,0.,4.8,0.,4.8
1979-07-26 00:33:20.070 ,2,0,2.,4.8,0.,4.8,0.,4.8,1.,4.8
1979-07-26 00:33:24.870 ,2,0,1.,4.8,0.,4.8,0.,4.8,0.,4.8
1979-07-26 00:33:29.670 ,2,0,1.,4.8,0.,4.8,0.,4.8,0.,4.8
1979-07-26 00:33:34.470 ,1,0,2.,4.8,1.,4.8,0.,4.8,0.,4.8
1979-07-26 00:33:39.270 ,1,0,3.,4.8,0.,4.8,1.,4.8,0.,4.8
1979-07-26 00:33:44.070 ,1,0,2.,4.8,0.,4.8,0.,4.8,0.,4.8
1979-07-26 00:33:48.870 ,1,0,0.,4.8,0.,4.8,0.,4.8,0.,4.8
1979-07-26 00:33:53.670 ,1,0,1.,4.8,0.,4.8,0.,4.8,0.,4.8
1979-07-26 00:33:58.470 ,1,0,1.,4.8,0.,4.8,0.,4.8,0.,4.8
1979-07-26 00:34:03.270 ,1,0,1.,4.8,0.,4.8,0.,4.8,0.,4.8